| time (UTC) | temp F | wind direction | speed MPH | gust MPH | rain 1hr in | rain 24hr in | rain mn in | humidity % | barometer mb |
| 20260509104559 | 55 | 248 | 0.0 | 0.0 | 0.01 | 0.55 | 0.01 | 97 | 1010.0 |
| 20260509103103 | 55 | 248 | 0.0 | 1.0 | 0.01 | 0.55 | 0.01 | 97 | 1010.2 |
| 20260509101601 | 55 | 230 | 0.0 | 1.0 | 0.01 | 0.55 | 0.01 | 97 | 1010.2 |
| 20260509100056 | 55 | 271 | 0.0 | 1.0 | 0.00 | 0.54 | 0.00 | 97 | 1010.3 |
| 20260509094555 | 55 | 238 | 0.0 | 3.0 | 0.00 | 0.54 | 0.00 | 97 | 1010.3 |
| 20260509093055 | 56 | 238 | 0.0 | 1.0 | 0.00 | 0.54 | 0.00 | 97 | 1010.3 |
| 20260509091614 | 56 | 294 | 0.0 | 0.0 | 0.00 | 0.54 | 0.00 | 97 | 1010.1 |
| 20260509090050 | 56 | 231 | 0.0 | 2.0 | 0.00 | 0.54 | 0.00 | 97 | 1010.0 |
| 20260509084550 | 56 | 236 | 0.0 | 2.0 | 0.00 | 0.54 | 0.00 | 97 | 1009.9 |
| 20260509083052 | 56 | 203 | 0.0 | 3.0 | 0.00 | 0.54 | 0.00 | 97 | 1010.0 |
| 20260509081548 | 56 | 214 | 0.0 | 1.0 | 0.00 | 0.54 | 0.00 | 97 | 1009.8 |
| 20260509080054 | 56 | 212 | 1.0 | 3.0 | 0.00 | 0.54 | 0.00 | 97 | 1009.7 |
| 20260509074552 | 56 | 242 | 0.0 | 1.0 | 0.00 | 0.54 | 0.00 | 97 | 1009.6 |
| 20260509073113 | 56 | 191 | 0.0 | 2.0 | 0.00 | 0.54 | 0.00 | 97 | 1009.6 |
| 20260509071543 | 56 | 207 | 0.0 | 0.0 | 0.00 | 0.54 | 0.00 | 97 | 1009.5 |
| 20260509070045 | 56 | 247 | 0.0 | 1.0 | 0.00 | 0.54 | 0.00 | 97 | 1009.6 |
| 20260509064541 | 56 | 247 | 0.0 | 1.0 | 0.00 | 0.54 | 0.00 | 97 | 1009.7 |
| 20260509063038 | 56 | 331 | 0.0 | 1.0 | 0.00 | 0.54 | 0.00 | 97 | 1009.7 |
| 20260509061536 | 56 | 200 | 0.0 | 1.0 | 0.00 | 0.54 | 0.00 | 97 | 1010.0 |
| 20260509060046 | 57 | 248 | 0.0 | 1.0 | 0.00 | 0.54 | 0.00 | 97 | 1010.0 |
| 20260509054534 | 57 | 226 | 0.0 | 1.0 | 0.00 | 0.54 | 0.00 | 97 | 1009.8 |
| 20260509053035 | 57 | 228 | 0.0 | 0.0 | 0.00 | 0.54 | 0.00 | 97 | 1009.8 |
| 20260509051533 | 57 | 224 | 0.0 | 1.0 | 0.00 | 0.54 | 0.00 | 97 | 1009.9 |
| 20260509050029 | 58 | 214 | 0.0 | 1.0 | 0.00 | 0.54 | 0.00 | 97 | 1010.1 |
| 20260509044534 | 57 | 173 | 0.0 | 2.0 | 0.00 | 0.54 | 0.54 | 97 | 1010.0 |
| 20260509043033 | 57 | 123 | 0.0 | 1.0 | 0.00 | 0.54 | 0.54 | 97 | 1010.0 |
| 20260509041526 | 58 | 152 | 0.0 | 0.0 | 0.00 | 0.54 | 0.54 | 97 | 1009.9 |
| 20260509040026 | 59 | 152 | 0.0 | 0.0 | 0.00 | 0.54 | 0.54 | 97 | 1010.0 |
| 20260509034536 | 59 | 152 | 0.0 | 0.0 | 0.00 | 0.54 | 0.54 | 97 | 1010.0 |
| 20260509033025 | 59 | 152 | 0.0 | 0.0 | 0.01 | 0.54 | 0.54 | 97 | 1009.9 |
| 20260509031524 | 59 | 135 | 0.0 | 1.0 | 0.03 | 0.54 | 0.54 | 96 | 1010.0 |
| 20260509030024 | 59 | 113 | 0.0 | 5.0 | 0.05 | 0.54 | 0.54 | 96 | 1009.8 |
| 20260509024523 | 60 | 208 | 0.0 | 3.0 | 0.07 | 0.54 | 0.54 | 96 | 1009.7 |
| 20260509023020 | 60 | 203 | 0.0 | 3.0 | 0.07 | 0.53 | 0.53 | 96 | 1009.5 |
| 20260509021525 | 60 | 65 | 1.0 | 3.0 | 0.08 | 0.51 | 0.51 | 96 | 1009.6 |
| 20260509020020 | 60 | 133 | 0.0 | 5.0 | 0.15 | 0.49 | 0.49 | 96 | 1009.6 |
| 20260509014520 | 60 | 343 | 1.0 | 6.0 | 0.28 | 0.47 | 0.47 | 96 | 1009.7 |
| 20260509013019 | 60 | 20 | 0.0 | 2.0 | 0.36 | 0.46 | 0.46 | 95 | 1009.5 |
| 20260509011518 | 60 | 267 | 0.0 | 1.0 | 0.33 | 0.42 | 0.42 | 95 | 1009.0 |
| 20260509010025 | 60 | 50 | 2.0 | 10.0 | 0.24 | 0.33 | 0.33 | 94 | 1008.6 |
| 20260509004517 | 61 | 22 | 7.0 | 14.0 | 0.09 | 0.18 | 0.18 | 93 | 1008.6 |
| 20260509003021 | 62 | 30 | 5.0 | 12.0 | 0.01 | 0.10 | 0.10 | 93 | 1008.6 |
| 20260509001514 | 62 | 326 | 1.0 | 3.0 | 0.00 | 0.09 | 0.09 | 92 | 1007.4 |
| 20260509000013 | 63 | 122 | 0.0 | 1.0 | 0.00 | 0.09 | 0.09 | 91 | 1007.1 |
| 20260508234513 | 63 | 49 | 0.0 | 1.0 | 0.00 | 0.09 | 0.09 | 91 | 1007.1 |
| 20260508233011 | 63 | 6 | 0.0 | 1.0 | 0.00 | 0.09 | 0.09 | 90 | 1007.3 |
| 20260508231510 | 64 | 139 | 0.0 | 1.0 | 0.01 | 0.09 | 0.09 | 90 | 1007.4 |
| 20260508230008 | 63 | 138 | 0.0 | 1.0 | 0.05 | 0.09 | 0.09 | 91 | 1007.6 |
| 20260508224516 | 63 | 158 | 0.0 | 4.0 | 0.09 | 0.09 | 0.09 | 91 | 1008.1 |
| 20260508223017 | 62 | 139 | 0.0 | 6.0 | 0.09 | 0.09 | 0.09 | 89 | 1008.4 |
| 20260508221504 | 63 | 134 | 0.0 | 2.0 | 0.08 | 0.08 | 0.08 | 87 | 1008.7 |
| 20260508220002 | 65 | 30 | 0.0 | 3.0 | 0.04 | 0.04 | 0.04 | 84 | 1009.4 |
| 20260508214502 | 66 | 321 | 0.0 | 1.0 | 0.00 | 0.00 | 0.00 | 79 | 1009.1 |
| 20260508213059 | 67 | 326 | 0.0 | 8.0 | 0.00 | 0.00 | 0.00 | 77 | 1008.8 |
| 20260508211602 | 70 | 345 | 1.0 | 6.0 | 0.00 | 0.00 | 0.00 | 69 | 1009.1 |
| 20260508210059 | 71 | 23 | 3.0 | 8.0 | 0.00 | 0.00 | 0.00 | 65 | 1008.4 |
| 20260508204555 | 75 | 340 | 0.0 | 1.0 | 0.00 | 0.00 | 0.00 | 61 | 1008.7 |
| 20260508203054 | 75 | 140 | 0.0 | 2.0 | 0.00 | 0.00 | 0.00 | 58 | 1008.9 |
| 20260508201546 | 75 | 223 | 0.0 | 2.0 | 0.00 | 0.00 | 0.00 | 60 | 1009.3 |
| 20260508200044 | 76 | 190 | 0.0 | 5.0 | 0.00 | 0.00 | 0.00 | 57 | 1009.7 |
| 20260508194542 | 78 | 198 | 0.0 | 6.0 | 0.00 | 0.00 | 0.00 | 55 | 1009.9 |
| 20260508193042 | 76 | 80 | 0.0 | 3.0 | 0.00 | 0.00 | 0.00 | 59 | 1010.2 |
| 20260508191535 | 74 | 245 | 0.0 | 4.0 | 0.00 | 0.00 | 0.00 | 60 | 1010.3 |
| 20260508190032 | 73 | 84 | 0.0 | 4.0 | 0.00 | 0.00 | 0.00 | 61 | 1010.3 |
| 20260508184531 | 73 | 209 | 0.0 | 1.0 | 0.00 | 0.00 | 0.00 | 64 | 1010.3 |
| 20260508183024 | 71 | 191 | 1.0 | 8.0 | 0.00 | 0.00 | 0.00 | 64 | 1010.3 |
| 20260508181521 | 70 | 179 | 1.0 | 6.0 | 0.00 | 0.00 | 0.00 | 65 | 1010.6 |
| 20260508180021 | 69 | 243 | 0.0 | 5.0 | 0.00 | 0.00 | 0.00 | 65 | 1010.8 |
| 20260508174516 | 68 | 238 | 0.0 | 5.0 | 0.00 | 0.00 | 0.00 | 67 | 1011.1 |
| 20260508173014 | 68 | 253 | 2.0 | 10.0 | 0.00 | 0.00 | 0.00 | 65 | 1011.3 |
| 20260508171614 | 68 | 218 | 0.0 | 8.0 | 0.00 | 0.00 | 0.00 | 65 | 1011.5 |
| 20260508170010 | 68 | 206 | 0.0 | 7.0 | 0.00 | 0.00 | 0.00 | 66 | 1011.9 |
| 20260508164508 | 68 | 226 | 0.0 | 7.0 | 0.00 | 0.00 | 0.00 | 66 | 1012.0 |
| 20260508163005 | 67 | 262 | 0.0 | 7.0 | 0.00 | 0.00 | 0.00 | 66 | 1012.3 |
| 20260508161503 | 67 | 240 | 0.0 | 6.0 | 0.00 | 0.00 | 0.00 | 67 | 1012.5 |
| 20260508160131 | 66 | 58 | 0.0 | 5.0 | 0.00 | 0.00 | 0.00 | 66 | 1012.8 |
| 20260508154558 | 65 | 219 | 1.0 | 8.0 | 0.00 | 0.00 | 0.00 | 67 | 1013.0 |
| 20260508153053 | 64 | 242 | 0.0 | 6.0 | 0.00 | 0.00 | 0.00 | 69 | 1013.2 |
| 20260508151552 | 62 | 169 | 0.0 | 6.0 | 0.00 | 0.00 | 0.00 | 71 | 1013.4 |
| 20260508150047 | 61 | 251 | 3.0 | 11.0 | 0.00 | 0.00 | 0.00 | 70 | 1013.6 |
| 20260508144547 | 60 | 163 | 1.0 | 6.0 | 0.00 | 0.00 | 0.00 | 74 | 1013.6 |
| 20260508143055 | 58 | 232 | 0.0 | 1.0 | 0.00 | 0.00 | 0.00 | 79 | 1014.1 |
| 20260508141548 | 57 | 2 | 0.0 | 2.0 | 0.00 | 0.00 | 0.00 | 80 | 1014.2 |
| 20260508140038 | 57 | 139 | 0.0 | 0.0 | 0.00 | 0.00 | 0.00 | 80 | 1014.2 |
| 20260508134536 | 57 | 226 | 0.0 | 0.0 | 0.00 | 0.00 | 0.00 | 80 | 1014.2 |
| 20260508133034 | 57 | 240 | 0.0 | 0.0 | 0.00 | 0.00 | 0.00 | 77 | 1013.9 |
| 20260508131531 | 57 | 240 | 0.0 | 0.0 | 0.00 | 0.00 | 0.00 | 75 | 1014.0 |
| 20260508130030 | 57 | 240 | 0.0 | 0.0 | 0.00 | 0.00 | 0.00 | 76 | 1013.6 |
| 20260508124527 | 56 | 142 | 0.0 | 1.0 | 0.00 | 0.00 | 0.00 | 77 | 1013.4 |
| 20260508123025 | 55 | 198 | 0.0 | 0.0 | 0.00 | 0.00 | 0.00 | 77 | 1013.2 |
| 20260508121548 | 55 | 228 | 0.0 | 0.0 | 0.00 | 0.00 | 0.00 | 76 | 1013.2 |
| 20260508120022 | 54 | 223 | 0.0 | 0.0 | 0.00 | 0.00 | 0.00 | 77 | 1012.9 |
| 20260508114518 | 54 | 186 | 0.0 | 0.0 | 0.00 | 0.00 | 0.00 | 77 | 1012.9 |
| 20260508113017 | 53 | 128 | 0.0 | 0.0 | 0.00 | 0.00 | 0.00 | 77 | 1012.9 |
| 20260508111516 | 53 | 137 | 0.0 | 1.0 | 0.00 | 0.00 | 0.00 | 78 | 1012.7 |
| 20260508110016 | 53 | 73 | 0.0 | 0.0 | 0.00 | 0.00 | 0.00 | 79 | 1012.7 |